Regional Weather Roundup
Issued by NWS

Home | Current Version | Previous Version | Text Only | Print | Product List | Glossary On
Versions: 1 2 3 4 5 6 7 8 9 10 11 12 13 14 15 16 17 18 19 20 21 22 23 24 25 26 27 28 29 30 31 32 33 34 35 36 37 38 39 40 41 42 43 44 45 46 47 48 49 50
000
ASUS43 KMKX 161100
RWRWI

WISCONSIN REGIONAL WEATHER ROUNDUP
NATIONAL WEATHER SERVICE MILWAUKEE/SULLIVAN WI
500 AM CST MON JAN 16 2017

NOTE: "FAIR" INDICATES FEW OR NO CLOUDS BELOW 12,000 FEET WITH NO
SIGNIFICANT WEATHER AND/OR OBSTRUCTIONS TO VISIBILITY.

WIZ001-002-006>008-014>016-023>028-161200-
NORTHWEST WISCONSIN

CITY           SKY/WX    TMP DP  RH WIND       PRES   REMARKS
SUPERIOR ARPT  CLOUDY    13  11  94 SW3       30.17S FOG
ASHLAND        CLOUDY    19  14  81 S9        30.17S WCI   8
HAYWARD        CLOUDY     2  -4  76 CALM      30.17S
SIREN          CLOUDY     2  -2  81 CALM      30.19R
CUMBERLAND     CLOUDY     9   5  85 CALM      30.17S FOG
RICE LAKE      CLOUDY    -1  -4  84 CALM      30.20S
CHETEK         CLOUDY     0  -3  86 CALM      30.20S
LADYSMITH      CLOUDY     5   2  88 CALM      30.20S
EAU CLAIRE     NOT AVBL
MENOMONIE      CLOUDY     4   1  86 CALM      30.21F
NEW RICHMOND   CLOUDY    12  10  89 CALM      30.18F
OSCEOLA        CLOUDY    12  10  90 CALM      30.21S
$$

WIZ003>005-009-010-017-018-161200-
NORTH CENTRAL WISCONSIN

CITY           SKY/WX    TMP DP  RH WIND       PRES   REMARKS
MANITOWISH WTR CLOUDY     5   4  97 CALM      30.15S
ARBOR VITAE    CLOUDY     7   4  87 CALM      30.15S FOG
WOODRUFF       CLOUDY     7   4  87 CALM      30.15S FOG
RHINELANDER    CLOUDY     7   6  96 SW3       30.16F FOG
EAGLE RIVER    CLOUDY     6   2  86 CALM      30.15S FOG
LAND O LAKES   CLOUDY    -1  -4  85 CALM      30.15F
PHILLIPS       CLOUDY   N/A N/A N/A CALM      30.16S HAZE
TOMAHAWK       CLOUDY    -3  -7  84 CALM      30.18S
MEDFORD        CLOUDY     3   0  86 SE3       30.18S
MERRILL        CLOUDY    -5 -10  81 CALM        N/A
$$

WIZ029-030-035-036-043>047-161200-
CENTRAL WISCONSIN

CITY           SKY/WX    TMP DP  RH WIND       PRES   REMARKS
WAUSAU         CLOUDY     2  -2  83 CALM      30.20F
MOSINEE        CLOUDY    10  10 100 CALM      30.22S
MARSHFIELD     CLOUDY    11   7  84 CALM      30.20R
STEVENS POINT  CLOUDY     2  -2  85 CALM      30.24R
WAUPACA        CLOUDY    12   8  84 CALM      30.25R
WAUTOMA        PTCLDY    12  10  92 CALM      30.26R
WISC RAPIDS    CLOUDY    10   7  87 CALM      30.24S
CAMP DOUGLAS   NOT AVBL
$$

WIZ011>013-019>022-031-037>040-048>050-161200-
NORTHEAST WISCONSIN

CITY           SKY/WX    TMP DP  RH WIND       PRES   REMARKS
ANTIGO         CLOUDY    -1  -4  89 CALM      30.19S
SHAWANO        PTCLDY     9   6  87 CALM      30.24F
OCONTO         CLOUDY     6   3  87 CALM      30.24F
STURGEON BAY   CLOUDY    19  14  81 SW5       30.24F WCI  12
GREEN BAY      CLOUDY    18  14  84 SW5       30.25S WCI  11
MANITOWOC      NOT AVBL
APPLETON       NOT AVBL
CLINTONVILLE   CLOUDY     5   1  85 CALM      30.24F
OSHKOSH        CLOUDY    19  14  81 S5        30.25S WCI  12
$$

WIZ032>034-041-042-053>061-161200-
SOUTHWEST WISCONSIN

CITY           SKY/WX    TMP DP  RH WIND       PRES   REMARKS
LA CROSSE      CLOUDY   N/A N/A N/A SE5       30.23F
SPARTA         CLOUDY    13  12  95 CALM      30.25S
VIROQUA        CLOUDY    28  16  62 S5        30.20F WCI  22
BOSCOBEL       FRZ RAIN  27  23  85 CALM      30.25F FOG
PRAIRIE DU CHI MIX PCPN  27  23  85 CALM      30.24F
PLATTEVILLE    CLOUDY    29  28  92 SE7       30.23S WCI  22
$$

WIZ056-057-062-063-064-067-068-161200-
SOUTH CENTRAL WISCONSIN

CITY           SKY/WX    TMP DP  RH WIND       PRES   REMARKS
REEDSBURG      CLOUDY    20  18  89 CALM      30.24S
BARABOO/DELLS  CLOUDY    23  19  84 S3        30.24S
LONE ROCK      NOT AVBL
MINERAL POINT  LGT RAIN  30  27  86 CALM      30.22F
MADISON        CLOUDY    25  21  85 CALM      30.25S
MIDDLETON      MOCLDY    27  24  87 CALM      30.25S
WATERTOWN      CLOUDY    25  22  87 CALM      30.26S
MONROE         MIX PCPN  30  27  86 SE6       30.23S WCI  24
JANESVILLE     MIX PCPN  30  28  93 CALM      30.26S
$$

WIZ051-052-058>065-066-070>072-161200-
SOUTHEAST WISCONSIN

CITY           SKY/WX    TMP DP  RH WIND       PRES   REMARKS
MILWAUKEE      CLOUDY    28  21  75 CALM      30.28R
WAUKESHA       CLOUDY    25  21  86 CALM      30.27S
MILWAUKEE/TIMM CLOUDY    27  19  74 CALM      30.28S
RACINE         CLOUDY    27  21  78 NW3       30.30R
KENOSHA        CLOUDY    28  22  78 CALM      30.28R HAZE
FOND DU LAC    CLOUDY    21  14  74 S5        30.26S WCI  15
SHEBOYGAN      CLOUDY    16  12  84 S3        30.26S
WEST BEND      CLOUDY    19  19 100 CALM      30.26R
JUNEAU         CLOUDY    23  19  85 CALM      30.27R
$$

LSZ147-162-161200-
LAKE SUPERIOR

STATION/POSITION TIME  TEMP    WIND        PRES    WAVE
                       AIR SEA DIR/SP/G            HT/PER
                 (UTC) (F)     (DEG/KT/KT) (MB)    (FT/S)
DEVILS ISLAND    1000   27     230/ 16/ 20 1021.8R
PORT WING        1040   19     190/  4/  5 1021.3S
SAXON HARBOR     1030   21     200/  6/  8 1021.3F
$$

LMZ867-665-643>646-161200-
LAKE MICHIGAN

STATION/POSITION TIME  TEMP    WIND        PRES    WAVE
                       AIR SEA DIR/SP/G            HT/PER
                 (UTC) (F)     (DEG/KT/KT) (MB)    (FT/S)
NORTHPORT PIER   1040   25     230/  3/  9 1023.4S
SISTER BAY       1035   24     260/  9/ 11   N/A
ALGOMA LAKESHORE 0923          290/  6       N/A
KEWAUNEE LAKESHO 1030   21     310/  4/  5 1023.7F
SHEBOYGAN LAKESH 1000   26     210/  3/  4 1025.8F
PORT WASHINGTON  1030   24     270/  1/  2 1026.4R
MILWAUKEE LAKESH 1030   30     220/  5/  5   N/A
KENOSHA   LAKESH 1000   30        CALM     1025.4
$$

TC  - TEMPERATURE IN CELSIUS
VSB - VISIBILITY IN STATUTE MILES
WCI - WIND CHILL INDEX
HX  - HEAT INDEX




USA.gov is the U.S. government's official web portal to all federal, state and local government web resources and services.